Humidity-temperature Sensor

Selected Measurement Type: Relative Humidity

 
Relative Humidity [%]     6 entries per hour
Showing data from 3/26/2023 (00:00:00 Z) to 3/19/2023 (00:01:00 Z)
Previous Next [ Day | 3-Days | 7-Days ]
First Last
Prev [ Day | 3-Days | 7-Days ] Next
First Last

Start Time:     :
End Time:     :     
Time (in GMT) :00 :50 :40 :30 :20 :10
Previous Next [ Day | 3-Days | 7-Days ]
First Last
Prev [ Day | 3-Days | 7-Days ] Next
First Last


123 => good data
MM => data is determined as missing
-- => data not received/configured
Back to Top Back to Top
3/26/2023 00:00 to 23:10 88.09 88.64 89.64 92.18 92.35 90.43
3/25/2023 23:00 to 22:10 89.85 90.83 93.46 92.87 92.83 93.14
3/25/2023 22:00 to 21:10 93.88 91.81 93.10 92.04 91.79 91.33
3/25/2023 21:00 to 20:10 86.63 86.38 86.09 86.53 87.40 89.37
3/25/2023 20:00 to 19:10 88.59 87.34 88.43 91.18 89.62 87.47
3/25/2023 19:00 to 18:10 87.80 88.11 89.18 87.65 83.92 85.07
3/25/2023 18:00 to 17:10 85.42 85.57 85.34 85.75 85.82 86.69
3/25/2023 17:00 to 16:10 85.11 86.46 85.94 85.84 85.17 83.96
3/25/2023 16:00 to 15:10 84.27 84.17 86.07 85.57 86.15 85.17
3/25/2023 15:00 to 14:10 87.82 85.84 85.30 83.83 83.98 85.07
3/25/2023 14:00 to 13:10 85.17 84.75 85.44 85.00 84.48 84.13
3/25/2023 13:00 to 12:10 83.96 84.08 82.96 83.23 81.06 81.16
3/25/2023 12:00 to 11:10 82.18 81.35 80.66 80.43 78.97 77.17
3/25/2023 11:00 to 10:10 80.93 80.10 83.29 84.54 86.01 87.15
3/25/2023 10:00 to 9:10 85.59 88.36 89.95 92.14 94.90 98.20
3/25/2023 09:00 to 8:10 98.47 97.88 96.90 96.09 94.38 93.75
3/25/2023 08:00 to 7:10 90.62 90.93 90.99 90.33 92.77 90.76
3/25/2023 07:00 to 6:10 89.93 88.43 88.59 88.16 87.84 88.70
3/25/2023 06:00 to 5:10 89.07 88.43 88.64 87.76 87.07 87.05
3/25/2023 05:00 to 4:10 86.21 87.30 88.41 89.51 89.30 88.64
3/25/2023 04:00 to 3:10 87.72 86.26 89.85 90.51 91.58 90.95
3/25/2023 03:00 to 2:10 89.45 89.60 87.84 88.64 87.84 90.66
3/25/2023 02:00 to 1:10 88.41 92.89 89.62 89.68 89.62 91.04
3/25/2023 01:00 to 0:10 89.89 89.76 90.08 91.27 91.18 89.37
3/25/2023 00:00 to 23:10 89.22 91.54 89.97 88.26 87.63 89.87
3/24/2023 23:00 to 22:10 90.83 92.81 94.67 95.67 89.14 88.97
3/24/2023 22:00 to 21:10 88.89 89.62 91.18 90.87 91.43 86.84
3/24/2023 21:00 to 20:10 85.30 87.82 87.32 84.96 86.13 88.89
3/24/2023 20:00 to 19:10 90.62 87.99 92.35 93.54 94.15 94.75
3/24/2023 19:00 to 18:10 94.75 95.07 90.99 96.03 97.55 96.92
3/24/2023 18:00 to 17:10 99.34 96.42 96.36 96.42 97.74 98.59
3/24/2023 17:00 to 16:10 98.95 98.28 97.47 96.67 95.75 93.08
3/24/2023 16:00 to 15:10 92.66 93.44 94.92 95.00 95.57 94.42
3/24/2023 15:00 to 14:10 94.69 94.04 94.81 93.98 94.73 93.14
3/24/2023 14:00 to 13:10 91.73 95.19 96.15 92.62 86.53 88.68
3/24/2023 13:00 to 12:10 93.23 92.79 91.47 93.96 90.85 84.84
3/24/2023 12:00 to 11:10 87.45 89.55 89.05 88.41 88.51 89.07
3/24/2023 11:00 to 10:10 90.26 94.08 94.31 95.80 97.45 94.77
3/24/2023 10:00 to 9:10 91.37 91.45 93.08 86.42 86.97 91.60
3/24/2023 09:00 to 8:10 90.54 90.08 91.73 87.26 87.51 81.10
3/24/2023 08:00 to 7:10 82.62 84.21 83.88 81.98 83.40 83.31
3/24/2023 07:00 to 6:10 81.85 81.48 82.14 81.60 81.62 82.02
3/24/2023 06:00 to 5:10 82.08 82.04 81.20 80.31 80.45 80.56
3/24/2023 05:00 to 4:10 80.29 78.76 79.60 78.89 79.24 79.70
3/24/2023 04:00 to 3:10 78.99 79.30 78.66 79.58 77.03 78.59
3/24/2023 03:00 to 2:10 77.38 78.97 78.64 79.12 78.11 78.07
3/24/2023 02:00 to 1:10 76.46 74.88 79.51 80.85 80.29 79.49
3/24/2023 01:00 to 0:10 80.03 79.41 76.67 74.90 73.88 72.02
3/24/2023 00:00 to 23:10 70.85 71.00 75.44 76.34 77.11 78.95
3/23/2023 23:00 to 22:10 79.58 78.68 79.37 79.18 79.70 79.47
3/23/2023 22:00 to 21:10 80.31 79.41 79.05 77.57 77.45 76.30
3/23/2023 21:00 to 20:10 76.19 77.05 78.76 78.82 79.64 78.59
3/23/2023 20:00 to 19:10 78.01 76.82 79.41 74.77 74.96 75.30
3/23/2023 19:00 to 18:10 74.98 76.99 76.82 77.26 77.03 77.40
3/23/2023 18:00 to 17:10 76.94 78.47 77.88 79.37 76.80 78.16
3/23/2023 17:00 to 16:10 78.11 79.10 77.97 79.32 77.72 76.42
3/23/2023 16:00 to 15:10 76.88 78.13 77.40 79.24 79.05 78.93
3/23/2023 15:00 to 14:10 80.18 77.99 79.03 79.53 78.03 79.55
3/23/2023 14:00 to 13:10 78.07 80.43 79.66 77.09 78.97 78.62
3/23/2023 13:00 to 12:10 78.95 78.95 77.68 76.55 77.47 76.84
3/23/2023 12:00 to 11:10 77.03 76.88 77.22 77.01 76.49 76.07
3/23/2023 11:00 to 10:10 75.73 76.55 76.19 76.49 77.86 78.01
3/23/2023 10:00 to 9:10 77.30 76.36 78.51 77.22 76.97 74.17
3/23/2023 09:00 to 8:10 74.75 77.28 76.72 77.09 79.05 77.80
3/23/2023 08:00 to 7:10 77.65 77.93 80.33 79.41 79.18 78.99
3/23/2023 07:00 to 6:10 77.55 76.49 77.28 76.99 76.19 76.59
3/23/2023 06:00 to 5:10 75.07 75.30 75.73 77.36 77.24 74.19
3/23/2023 05:00 to 4:10 73.60 75.23 74.31 75.11 74.11 74.38
3/23/2023 04:00 to 3:10 76.34 76.63 75.82 75.25 75.23 76.21
3/23/2023 03:00 to 2:10 75.17 74.59 74.21 73.25 74.57 74.00
3/23/2023 02:00 to 1:10 72.37 74.86 74.82 74.65 74.21 75.65
3/23/2023 01:00 to 0:10 74.21 75.44 76.65 73.52 75.21 76.55
3/23/2023 00:00 to 23:10 75.36 74.31 72.06 73.29 74.25 73.50
3/22/2023 23:00 to 22:10 74.21 74.73 76.97 77.36 74.25 75.90
3/22/2023 22:00 to 21:10 72.73 74.04 72.75 71.48 74.52 75.19
3/22/2023 21:00 to 20:10 77.11 75.27 77.26 77.70 74.00 74.52
3/22/2023 20:00 to 19:10 77.40 75.73 75.63 73.42 74.00 74.23
3/22/2023 19:00 to 18:10 77.20 77.84 77.01 76.11 77.84 79.47
3/22/2023 18:00 to 17:10 80.16 79.01 78.32 78.30 80.72 79.43
3/22/2023 17:00 to 16:10 77.97 76.55 78.41 78.93 77.68 77.13
3/22/2023 16:00 to 15:10 80.03 78.24 77.30 78.95 77.91 79.51
3/22/2023 15:00 to 14:10 78.64 78.20 78.39 78.57 78.03 75.96
3/22/2023 14:00 to 13:10 75.30 71.91 77.28 75.67 75.00 77.57
3/22/2023 13:00 to 12:10 77.99 76.82 75.80 76.72 76.09 79.68
3/22/2023 12:00 to 11:10 78.59 79.70 78.30 78.64 78.76 79.26
3/22/2023 11:00 to 10:10 78.99 79.62 78.70 79.76 78.28 77.82
3/22/2023 10:00 to 9:10 78.70 78.74 76.78 77.47 77.95 77.82
3/22/2023 09:00 to 8:10 79.07 79.70 79.07 80.06 77.97 77.68
3/22/2023 08:00 to 7:10 75.76 76.88 78.91 80.10 78.18 79.53
3/22/2023 07:00 to 6:10 77.86 77.68 77.11 76.59 79.12 79.32
3/22/2023 06:00 to 5:10 76.94 78.20 78.13 79.93 79.95 79.93
3/22/2023 05:00 to 4:10 79.51 77.17 79.85 80.49 79.37 79.01
3/22/2023 04:00 to 3:10 77.01 75.36 75.61 73.12 73.98 73.31
3/22/2023 03:00 to 2:10 73.29 74.36 73.25 77.74 76.67 76.17
3/22/2023 02:00 to 1:10 77.26 77.49 76.51 78.07 77.20 76.11
3/22/2023 01:00 to 0:10 76.88 77.63 78.82 78.99 78.55 80.01
3/22/2023 00:00 to 23:10 79.74 77.78 79.51 78.84 77.26 79.95
3/21/2023 23:00 to 22:10 77.01 76.80 77.45 77.80 77.74 77.91
3/21/2023 22:00 to 21:10 77.76 77.17 77.99 77.47 77.26 74.67
3/21/2023 21:00 to 20:10 77.38 77.86 77.61 78.64 79.12 76.74
3/21/2023 20:00 to 19:10 73.75 76.15 79.70 77.84 77.11 77.65
3/21/2023 19:00 to 18:10 77.61 76.44 76.42 77.53 79.80 77.61
3/21/2023 18:00 to 17:10 76.42 77.61 77.51 79.32 79.97 77.34
3/21/2023 17:00 to 16:10 77.93 79.01 78.80 78.13 78.66 76.57
3/21/2023 16:00 to 15:10 80.18 76.90 79.18 78.26 77.82 77.70
3/21/2023 15:00 to 14:10 78.47 80.41 78.78 76.82 78.45 78.97
3/21/2023 14:00 to 13:10 79.70 79.24 80.58 79.12 78.80 76.88
3/21/2023 13:00 to 12:10 77.15 76.34 77.88 78.41 81.48 77.28
3/21/2023 12:00 to 11:10 77.15 77.76 78.93 78.41 77.82 76.26
3/21/2023 11:00 to 10:10 77.15 75.05 76.76 75.78 76.92 75.00
3/21/2023 10:00 to 9:10 76.84 78.59 77.55 75.00 78.09 77.22
3/21/2023 09:00 to 8:10 76.28 75.53 77.61 76.74 76.74 77.09
3/21/2023 08:00 to 7:10 74.98 76.05 74.36 73.56 71.73 71.50
3/21/2023 07:00 to 6:10 70.64 67.82 69.39 70.97 72.44 71.41
3/21/2023 06:00 to 5:10 71.98 74.40 75.38 75.84 76.36 73.81
3/21/2023 05:00 to 4:10 77.03 76.78 74.19 75.11 77.09 76.55
3/21/2023 04:00 to 3:10 75.30 74.57 74.69 74.79 74.27 75.05
3/21/2023 03:00 to 2:10 73.83 73.63 73.56 74.42 73.23 72.19
3/21/2023 02:00 to 1:10 72.85 73.96 74.15 73.46 74.36 76.46
3/21/2023 01:00 to 0:10 75.00 75.86 74.79 75.82 76.03 77.57
3/21/2023 00:00 to 23:10 76.13 77.36 75.05 77.20 74.71 75.94
3/20/2023 23:00 to 22:10 73.44 75.65 76.92 76.07 77.24 74.52
3/20/2023 22:00 to 21:10 73.48 74.61 75.36 73.42 74.29 75.19
3/20/2023 21:00 to 20:10 74.11 73.98 73.69 76.26 76.84 77.11
3/20/2023 20:00 to 19:10 75.94 76.21 75.55 74.34 74.61 75.63
3/20/2023 19:00 to 18:10 75.57 78.07 76.61 77.78 80.20 78.70
3/20/2023 18:00 to 17:10 80.70 81.41 77.17 78.57 80.14 78.91
3/20/2023 17:00 to 16:10 80.18 77.26 74.63 73.00 78.32 76.01
3/20/2023 16:00 to 15:10 78.53 79.35 78.20 78.87 80.24 78.16
3/20/2023 15:00 to 14:10 81.77 81.93 79.78 79.24 77.30 75.53
3/20/2023 14:00 to 13:10 78.62 79.89 77.63 75.27 78.05 80.83
3/20/2023 13:00 to 12:10 82.44 81.29 81.27 82.77 82.31 81.45
3/20/2023 12:00 to 11:10 82.27 81.93 82.56 81.16 82.94 82.06
3/20/2023 11:00 to 10:10 80.08 82.37 82.02 80.49 87.11 87.05
3/20/2023 10:00 to 9:10 86.17 86.19 84.04 82.81 82.73 84.17
3/20/2023 09:00 to 8:10 83.23 83.25 83.19 82.29 81.16 83.08
3/20/2023 08:00 to 7:10 83.71 82.39 83.83 84.90 84.86 83.00
3/20/2023 07:00 to 6:10 84.11 83.60 85.07 82.66 83.75 83.23
3/20/2023 06:00 to 5:10 84.79 85.52 86.65 86.13 85.73 85.09
3/20/2023 05:00 to 4:10 83.08 83.77 83.02 82.66 82.39 82.14
3/20/2023 04:00 to 3:10 80.95 81.50 80.64 81.87 81.89 82.62
3/20/2023 03:00 to 2:10 80.70 80.81 79.64 81.10 83.12 81.04
3/20/2023 02:00 to 1:10 81.22 82.87 81.37 80.72 79.62 78.39
3/20/2023 01:00 to 0:10 81.12 79.39 81.20 81.83 81.77 80.12
3/20/2023 00:00 to 23:10 80.70 80.14 80.16 80.31 81.04 82.31
3/19/2023 23:00 to 22:10 82.85 81.20 81.68 81.29 80.91 80.70
3/19/2023 22:00 to 21:10 80.45 80.54 79.80 79.80 79.64 79.05
3/19/2023 21:00 to 20:10 80.58 79.30 78.91 80.08 79.47 81.48
3/19/2023 20:00 to 19:10 80.31 78.11 77.61 79.43 81.31 80.62
3/19/2023 19:00 to 18:10 79.85 80.16 81.22 80.89 81.08 78.26
3/19/2023 18:00 to 17:10 79.95 81.27 80.70 82.89 81.41 80.56
3/19/2023 17:00 to 16:10 80.74 79.18 82.06 83.88 80.54 87.28
3/19/2023 16:00 to 15:10 87.32 87.72 87.03 86.99 86.03 83.77
3/19/2023 15:00 to 14:10 83.40 83.12 86.55 87.80 88.26 84.73
3/19/2023 14:00 to 13:10 86.03 86.84 84.17 84.65 87.49 88.53
3/19/2023 13:00 to 12:10 88.26 88.43 87.11 88.74 89.85 89.91
3/19/2023 12:00 to 11:10 90.20 89.51 88.53 87.63 86.07 83.25
3/19/2023 11:00 to 10:10 83.92 84.86 85.23 86.46 87.57 89.95
3/19/2023 10:00 to 9:10 89.35 87.11 89.07 88.11 87.38 86.51
3/19/2023 09:00 to 8:10 84.34 85.36 85.71 85.65 88.05 87.76
3/19/2023 08:00 to 7:10 87.15 85.71 85.34 85.36 85.34 84.71
3/19/2023 07:00 to 6:10 84.59 81.73 81.29 85.04 88.30 86.92
3/19/2023 06:00 to 5:10 87.86 87.99 89.26 88.99 90.31 87.93
3/19/2023 05:00 to 4:10 84.84 85.65 87.03 86.51 89.49 89.39
3/19/2023 04:00 to 3:10 87.80 86.51 83.37 82.69 81.75 81.06
3/19/2023 03:00 to 2:10 78.13 79.85 81.77 84.48 84.06 85.48
3/19/2023 02:00 to 1:10 84.29 83.79 85.11 83.54 83.44 82.27
3/19/2023 01:00 to 0:10 82.52 82.73 83.25 84.02 86.19 85.82